Location: Santa Cristina
(46.5667°N, 11.7167°E)
Time: 07:39:00
(UTC+00:00)

ERS-1 - Pass Details

Date: 21 April 2021
Orbit: 741 x 790 km, 98.6° (Epoch: 05 May)

Event Time Altitude Azimuth Distance (km) Brightness Sun altitude
Rises 02:30:52 0° 14° (NNE) 3,193 8.6 -16.6°
Reaches altitude 10° 02:33:09 10° 14° (NNE) 2,267 7.7 -16.3°
Maximum altitude 02:38:08 89° 292° (WNW) 754 4.4 -15.6°
Enters shadow 02:42:08 16° 197° (SSW) 1,869 6.0 -15.0°
